weather.gov     
National Weather Service

Regional Weather Roundup
NWS Homepage
This page is being discontinued on March 12, 2014.
The same data is available at this site. Please update your bookmarks.
Thank you, and we apologize for the inconvenience.
Please send an email to SR-SRH.Webmaster@noaa.gov with any concerns.


Current Version
Previous Version:    01  02  03  04  05  06  07  08  09  10  11  12  13  14  15  16  17  18  19  20  21  22  23  24  25  26  27  
[Printable]
147
ASUS42 KTBW 241110
RWRFL
FLORIDA REGIONAL WEATHER ROUNDUP
NATIONAL WEATHER SERVICE TAMPA BAY RUSKIN FL
700 AM EDT FRI OCT 24 2014

NOTE: "FAIR" INDICATES FEW OR NO CLOUDS BELOW 12,000 FEET WITH NO
SIGNIFICANT WEATHER AND/OR OBSTRUCTIONS TO VISIBILITY.


FLZ001>010-012>015-112-114-115-241200-
PANHANDLE FLORIDA

CITY           SKY/WX    TMP DP  RH WIND       PRES   REMARKS
PENSACOLA      CLEAR     54  47  77 N7        30.06R
PENSACOLA NAS  MOCLDY    52  46  80 N7        30.06R
MILTON NAS     PTCLDY    50  45  83 N3        30.06S
CRESTVIEW      PTCLDY    48  46  93 CALM      30.08R
DUKE FIELD     FAIR      48  46  93 CALM      30.06R
VALPARAISO     MOCLDY    54  46  73 N5        30.06R
MARY ESTHER    CLOUDY    53  44  73 N9        30.05R
PANAMA CITY    FAIR      53  48  83 CALM      30.03R
TYNDALL AFB    MOCLDY    52  50  92 N2        30.04R
APALACHICOLA   MOCLDY    55  47  74 CALM      30.02R

STATION/POSITION SKY/WX   TEMP    WIND        PRES    WAVE   SWELL
                          AIR SEA DIR/SP/G            HT/PER HT/PER
                          (F)     (DEG/KT/KT) (MB)    (FT/S) (FT/S)
30.1N   87.6W              67 78   20/ 14/ 17 1017.1R   2/ 8   2/ 8
29.2N   88.2W              71 78   10/ 10/ 14 1017.6R   3/ 6   3/ 6
28.8N   86.0W              72 80   20/  8/ 12 1015.8R   3/ 5   2/ 5
PANAMA CITY BEAC           55 76   10/  7/  8 1017.1R
CAPE SAN BLAS    NOT AVBL
TOWER C                    69      50/  8/ 10 1016.0R
28.5N   84.5W              73 81   50/ 10/ 14 1014.8R   3/ 5   2/ 5

$$
FLZ011-016>038-118-127-128-134-139-239-241200-
NORTH FLORIDA

CITY           SKY/WX    TMP DP  RH WIND       PRES   REMARKS
MARIANNA       MOCLDY    50  50 100 CALM      30.04R
TALLAHASSEE    CLOUDY    50  44  80 CALM      30.03R
PERRY          PTCLDY    45  45 100 CALM      30.03S
CROSS CITY       N/A     45  42  89 CALM      30.00S
LAKE CITY      FAIR      43  43 100 CALM      30.01F FOG
GAINESVILLE    CLEAR     47  45  93 CALM      30.01S
MAYPORT NAS    CLEAR     58  53  84 VRB3      30.01S
JACKSONVILLE   PTCLDY    47  46  97 CALM      30.01S
JAX NAS        PTCLDY    63  52  67 N9        30.02S
JAX CRAIG      CLEAR     51  49  92 CALM      30.02R
JAX CECIL      CLEAR     43  41  93 CALM      30.02S
FERNANDINA BEA FAIR      57  52  82 CALM      30.00S
ST AUGUSTINE   CLEAR     55  50  83 NW7       30.01R

STATION/POSITION SKY/WX   TEMP    WIND        PRES    WAVE   SWELL
                          AIR SEA DIR/SP/G            HT/PER HT/PER
                          (F)     (DEG/KT/KT) (MB)    (FT/S) (FT/S)
SHELL POINT                56      30/  3/  5   N/A
KEATON BEACH               52     360/  2/  3 1016.6R
CEDAR KEY                  62      50/  8/ 10 1016.0S
FERNANDINA                 58 73  350/  2/  4 1015.9
30.7N   81.3W                 76                N/A     2/ 8
MAYPORT                    59 75  320/  6/  7   N/A
31.4N   80.9W              69 75   40/  6/  8 1016.8R   2/ 9   2/ 9
ST AUGUSTINE               59     320/  6/  7 1016.4R

$$
FLZ040-043>046-052-053-057-058-063-144-241200-
INTERIOR CENTRAL FLORIDA

CITY           SKY/WX    TMP DP  RH WIND       PRES   REMARKS
OCALA          CLEAR     52  48  87 NE5       30.00R
THE VILLAGES     N/A     59  54  82 N3        29.90R
LEESBURG       CLEAR     60  54  80 N8        29.99R
SANFORD        PTCLDY    64  56  75 N8        29.97S
ORLANDO EXEC   CLEAR     64  56  75 N7        29.97R
ORLANDO INTL   PTCLDY    62  57  83 N9        29.97R
WINTER HAVEN   CLEAR     62  56  80 N9        29.97S
LAKELAND       CLEAR     61  55  82 N8        29.96S
BARTOW         FAIR      63  55  77 NE10G16   29.96S
OKEECHOBEE       N/A    N/A N/A N/A MISG        N/A

$$
FLZ041-047-054-059-064-141-147-241200-
EAST CENTRAL FLORIDA

CITY           SKY/WX    TMP DP  RH WIND       PRES   REMARKS
ORMOND BEACH   CLEAR     54  52  94 CALM      29.99
DAYTONA BEACH  MOCLDY    60  55  83 NW6       29.98S
DELAND         SUNNY     57  54  88 N6        29.99S
NEW SMYRNA BEA MOCLDY    63  57  82 N3        29.98
JFK SPACE CTR  MOCLDY    61  57  88 W2        29.96R
TITUSVILLE     CLEAR     57  57 100 VRB5      29.96
CAPE CANAVERAL CLEAR     68  55  62 NE6       29.95R
PATRICK AFB    CLEAR     71  56  57 NE7       29.94R
MELBOURNE      PTCLDY    62  58  86 W5        29.94R
VERO BEACH     MOCLDY    72  61  68 NE10      29.92R
FT PIERCE      CLOUDY    74  60  61 NE9       29.91R
STUART         MOCLDY    75  63  64 E14       29.90F

STATION/POSITION SKY/WX   TEMP    WIND        PRES    WAVE   SWELL
                          AIR SEA DIR/SP/G            HT/PER HT/PER
                          (F)     (DEG/KT/KT) (MB)    (FT/S) (FT/S)
28.5N   80.2W              74 80   60/ 12/ 16 1014.0R
28.9N   78.5W              73 81   30/ 12/ 14 1014.7R   3/ 9   2/ 9
TRIDENT PIER               64 80   20/  4/  5 1013.7R
28.4N   80.5W                 78                N/A     2/ 3
27.6N   80.2W                 80                N/A     3/ 5

$$
FLZ050-056-061-142-242-148-248-149-249-151-251-155-255-
160-260-241200-
WEST CENTRAL FLORIDA

CITY           SKY/WX    TMP DP  RH WIND       PRES   REMARKS
CRYSTAL RIVER  FAIR      52  48  87 CALM      29.99R
INVERNESS      FAIR      52  52 100 CALM      30.00R
BROOKSVILLE    CLEAR     58  53  84 NE9       29.99R
ZEPHYRHILLS      N/A     52  52 100 N6        29.99R
CLEARWATER     CLEAR     66  58  75 NE13      29.96R
TAMPA INTL     CLEAR     61  55  81 NE7       29.98R
TAMPA EXEC     CLEAR     59  55  88 CALM      29.98R
PLANT CITY     CLEAR     63  57  82 N6        29.99R
MACDILL AFB    CLEAR     60  58  93 E9        29.97R
ST PETERSBURG  CLEAR     69  60  73 NE12      29.95R
SARASOTA       CLEAR     62  56  80 NE7       29.94R
VENICE           N/A     63  57  82 MISG      29.95R

STATION/POSITION SKY/WX   TEMP    WIND        PRES    WAVE   SWELL
                          AIR SEA DIR/SP/G            HT/PER HT/PER
                          (F)     (DEG/KT/KT) (MB)    (FT/S) (FT/S)
CEDAR KEY                  62      50/  8/ 10 1016.0S
28.5N   84.5W              73 81   50/ 10/ 14 1014.8R   3/ 5   2/ 5
27.3N   84.3W                 82                N/A     3/ 5
CLEARWATER BEACH NOT AVBL
MIDDLE TAMPA BAY           69      70/ 18/ 20 1014.5R
VENICE                     63 78   30/  9/ 12 1013.5R

$$
FLZ066-069-070-075>078-162-262-165-265-241200-
SOUTHWEST FLORIDA AND KEYS

CITY           SKY/WX    TMP DP  RH WIND       PRES   REMARKS
PUNTA GORDA    MOCLDY    64  58  80 NE8       29.94R
FT MYERS       CLEAR     64  58  80 NE12      29.90R
SOUTHWEST INTL CLEAR     65  58  78 N8        29.90R
NAPLES         CLEAR     70  60  70 NE13      29.87R
MARATHON       HVY RAIN  75  32  20 NE12      29.81R
KEY WEST NAS   CLOUDY    75  72  90 NE16      29.81R
KEY WEST INTL  CLOUDY    76  75  97 NE10G21   29.82R

STATION/POSITION SKY/WX   TEMP    WIND        PRES    WAVE   SWELL
                          AIR SEA DIR/SP/G            HT/PER HT/PER
                          (F)     (DEG/KT/KT) (MB)    (FT/S) (FT/S)
VENICE                     63 78   30/  9/ 12 1013.5R
NAPLES                     70 81   30/  8/ 11 1012.0R
26.0N   85.6W              78 81   30/ 12/ 16 1013.2R   5/ 7   3/ 7
DRY TORTUGAS               79      60/ 23/ 26 1009.5R
NW FL BAY                  75      60/ 14/ 16 1009.5F
SAND KEY                   76      50/ 21/ 24 1009.2R
SOMBRERO KEY               75      30/ 20/ 23 1009.3R
LONG KEY                   76 78   20/ 17/ 19 1009.4F
MOLASSES REEF              77 82   70/ 14/ 16 1009.1R

$$
FLZ067-068-071>074-168-172>174-241200-
SOUTHEAST FLORIDA

CITY           SKY/WX    TMP DP  RH WIND       PRES   REMARKS
W PALM BEACH   MOCLDY    77  66  68 NE15G26   29.87R
FT LAUDER-EXEC CLOUDY    78  67  68 NE12G22   29.85S
FT LAUDERDALE  LGT RAIN  77  71  82 NE16G24   29.83S
POMPANO BEACH  CLOUDY    79  68  69 NE18      29.85S
PEMBROKE PINES LGT RAIN  75  71  87 NE15      29.86R
OPA LOCKA      LGT RAIN  75  72  90 NE14      29.84S
MIAMI          LGT RAIN  74  72  93 NE10      29.84R FOG
WEST KENDALL   LGT RAIN  75  72  90 NE13      29.84S
HOMESTEAD      LGT RAIN  75  73  94 NE17      29.82S

STATION/POSITION SKY/WX   TEMP    WIND        PRES    WAVE   SWELL
                          AIR SEA DIR/SP/G            HT/PER HT/PER
                          (F)     (DEG/KT/KT) (MB)    (FT/S) (FT/S)
PORT EVERGLADES            78      50/ 19/ 24 1010.4
VIRGINIA KEY               75 79   50/ 15/ 23 1010.4R
LAKE WORTH                 78 80   40/ 21/ 23 1011.1R
FOWEY ROCKS                77 81   30/ 25/ 27 1009.9R
SETTLEMENT POINT           77      60/ 20/ 23 1012.3R

$$





U.S. Dept. of Commerce
NOAA National Weather Service
1325 East West Highway
Silver Spring, MD 20910
E-mail: w-nws.webmaster@noaa.gov
Page last modified: May 16, 2007
NATIONAL WEATHER SERVICE: for Safety, for Work, for Fun - FOR LIFE